sat.trackr.live / text

‹ back to catalog

STARLINK-36779

NORAD 67869 · 2026-034V

PAYLOAD ACTIVE UNKNOWN

§ Identity

Operator
Country
US
Launch date
2026-02-20
Launch site
AFETR
Launch vehicle
Mass (kg)
RCS (m²)

Purposes: comms

External: N2YO · Heavens-Above · Gunter

§ Orbital elements

Epoch: 2026-09-19T19:52:32.477952Z

Period
93.85 min
Inclination
53.1591°
Eccentricity
0.0001186
Mean motion
15.34410462 rev/d
Perigee alt
461.9 km
Apogee alt
463.5 km
Semi-major
6,840.8 km
B*
7.4753e-4
RAAN
17.2049°
Arg perigee
85.0491°
Mean anomaly
275.0647°
Rev number
3,382

§ Raw data

STARLINK-367791 67869U 26034V   26262.82815368  .00024973  00000+0  74753-3 0  99932 67869  53.1591  17.2049 0001186  85.0491 275.0647 15.34410462 33825

JSON: /api/v1/satellites/67869 · /tle

For live sub-satellite position, see the globe view (requires WebGL).

§ Visibility from observer

Set your observer location to see the next 7 days of passes ≥ 10°. The values pass through the URL so the page stays shareable.

No JS? Fill the form by hand. The geolocation button needs JavaScript.